EUTELSAT HOTBIRD 13C

Last updated on Sun Mar 15 2026 00:02:52 GMT+0000 (Coordinated Universal Time)

1 33459U 08065A 26073.48716843 -.00000282 00000+0 00000+0 0 9993 2 33459 2.7055 80.3169 0003866 286.8884 289.9789 1.00270791 46390
UTC large
Height (km)
Speed (km/s)
/
Latitude / Longitude
Inclination (degrees)
Orbital Period (minutes)
Azimuth
Elevation
Range (km)
Doppler Factor

Next 0 passes for location: London (51.5072 / 0.1276)

Sorry there are no passes over London.